User: anonymous   Login
Location: Unspecified
(0.0000°N, 0.0000°E)
Time: 06:05:58
(UTC+00:00)
Language:

COSMOS 2501 (GLONASS) - Orbit

View from above orbital plane
View from above orbital plane
View from above satellite
View from above satellite

Ground track
Ground track

The orbit data is extracted from the following two-line orbital elements,

1 40315U 14075A   18232.38027116 -.00000007  00000-0  00000+0 0  9991
2 40315  64.1894 290.2749 0017142 207.9548  49.4493  2.13098655 28956
Epoch (UTC): 20 August 2018 09:07:35
Eccentricity: 0.0017142
inclination: 64.1894°
perigee height: 19086 km
apogee height: 19173 km
right ascension of ascending node: 290.2749°
argument of perigee: 207.9548°
revolutions per day: 2.13098655
mean anomaly at epoch: 49.4493°
orbit number at epoch: 2895

The dashed part of the orbit path shows where the satellite is in the earth's shadow,  

DLR